Tracking 20945 objects as of 8-Jul-2020
HD Live streaming from Space Station
objects crossing your sky now

EKRAN 7

Track EKRAN 7 now!
EKRAN 7 is classified as:


NORAD ID: 12564
Int'l Code: 1981-061A
Perigee: 35,778.2 km
Apogee: 35,828.4 km
Inclination: 11.4 °
Period: 1,436.6 minutes
Semi major axis: 42174 km
RCS: 3.9811 m2 (large)
Launch date: June 26, 1981
Source: Commonwealth of Independent States (former USSR) (CIS)
Launch site: TYURATAM MISSILE AND SPACE COMPLEX (TTMTR)
aabbcc
Your satellite tracking list
Your tracking list is empty




NASA's NSSDC Master Catalog

Two Line Element Set (TLE):
1 12564U 81061A   20189.88070133 +.00000075 +00000-0 +00000-0 0  9996
2 12564 011.4292 315.2641 0005950 049.3048 293.6258 01.00237757107744
Source of the keplerian elements: AFSPC